Regional Weather Roundup
Issued by NWS

Home | Current Version | Previous Version | Text Only | Print | Product List | Glossary On
Versions: 1 2 3 4 5 6 7 8 9 10 11 12 13 14 15 16 17 18 19 20 21 22 23 24 25 26 27 28 29 30 31 32 33 34 35 36 37 38 39 40 41 42 43 44 45 46 47 48 49 50
000
ASUS43 KDMX 210501
RWRIA

WEATHER ROUNDUP FOR IOWA
NATIONAL WEATHER SERVICE DES MOINES IA
1100 PM CST TUE FEB 20 2018

NOTE: "FAIR" INDICATES FEW OR NO CLOUDS BELOW 12,000 FEET WITH NO
SIGNIFICANT WEATHER AND/OR OBSTRUCTIONS TO VISIBILITY.

* - THESE STATIONS ARE NOT NWS STATIONS...THUS NOT UNDER NWS
QUALITY CONTROL.  THEY ALSO DO NOT REPORT WEATHER SUCH
AS PRECIPITATION OR FOG.

IAZ001>003-012>014-020>022-031>034-043>046-210600-
   NORTHWEST IOWA

CITY           SKY/WX    TMP DP  RH WIND       PRES   REMARKS
CARROLL *      CLOUDY    12   7  79 NW15G22   30.39R WCI  -4
CHEROKEE *     CLEAR      9   4  82 NW6       30.41R WCI  -1
DENISON *      CLOUDY    10   5  79 N10       30.42R WCI  -3
LE MARS *      CLOUDY     5   1  85 NW6       30.44R WCI  -6
ORANGE CITY *  CLEAR      3   1  92 NW5       30.40R WCI  -6
SHELDON *      CLEAR      5   0  78 W7        30.38R WCI  -7
SIOUX CITY     CLEAR      8   2  76 NW12      30.45R WCI  -7
SPENCER        MIX PCPN   7   1  76 NW8       30.39R WCI  -6
STORM LAKE *   CLOUDY     9   3  78 NW14      30.38R WCI  -8
$$

IAZ055>058-069>071-079>083-090>094-210600-
   SOUTHWEST IOWA

CITY           SKY/WX    TMP DP  RH WIND       PRES   REMARKS
ATLANTIC *     CLOUDY    12   9  85 N15G23    30.40R WCI  -4
AUDUBON *      CLOUDY    12   7  79 NW8       30.39R WCI   1
CLARINDA *     CLOUDY    16  10  79 N17G24    30.43R WCI   0
COUNCIL BLFS * CLOUDY    12  10  92 NW15      30.42R WCI  -4
CRESTON *      CLOUDY    16  10  79 N16       30.37R WCI   0
HARLAN  *      CLOUDY    12   9  85 N18       30.44R WCI  -5
LAMONI         CLOUDY    18  12  77 N13       30.34R WCI   5
RED OAK *      CLOUDY    14   9  79 N13       30.42R WCI   0
SHENANDOAH *   MOCLDY    16  10  79 N13       30.44R WCI   2
$$

IAZ047>049-059>061-072>074-084-210600-
   CENTRAL IOWA

CITY           SKY/WX    TMP DP  RH WIND       PRES   REMARKS
AMES           CLOUDY    16  10  77 NW15      30.37R WCI   1
ANKENY *       CLOUDY    18  10  73 NW10G20   30.39R WCI   6
BOONE *        CLOUDY    14  10  85 MISG      30.36R
CHARITON *     CLOUDY    18  14  86 NW14      30.35R WCI   4
DES MOINES     CLOUDY    17  10  74 NW13      30.37R WCI   4
GRINNELL*      MOCLDY    18  15  85 NW16      30.34R WCI   4
KNOXVILLE *    CLOUDY    19  12  73 N20       30.34R WCI   4
MARSHALLTOWN   PTCLDY    16  11  80 NW17      30.34R WCI   0
NEWTON *       CLOUDY    18  14  86 NW18G24   30.35R WCI   2
PELLA *        CLOUDY    19  14  81 NW12      30.36R WCI   7
$$

IAZ004>006-015-016-023>025-035-036-210600-
   NORTH CENTRAL IOWA

CITY           SKY/WX    TMP DP  RH WIND       PRES   REMARKS
CLARION *      CLOUDY    12  12 100 NW16G23   30.36R WCI  -4
ESTHERVILLE    CLOUDY     7   1  76 NW12      30.36R WCI  -8
FORT DODGE *   PTCLDY    11   6  81 NW8       30.38R WCI  -1
MASON CITY     PTCLDY    11   5  77 NW16      30.35R WCI  -6
FOREST CITY *  FAIR      12   9  85 NW10      30.34R WCI  -1
WEBSTER CITY * MOCLDY    12   7  79 NW14      30.35R WCI  -3
IOWA FALLS *   FAIR      15  10  81 NW13      30.35R WCI   1
$$

IAZ007>011-017>019-026>030-037>042-050>054-066-210600-
   NORTHEAST IOWA

CITY           SKY/WX    TMP DP  RH WIND       PRES   REMARKS
CEDAR RAPIDS   CLOUDY    20  13  74 NW18G26   30.28R WCI   5
CHARLES CITY * CLOUDY    14  12  92 NW21G26   30.32R WCI  -4
CLINTON *      CLOUDY    25  21  85 NW16        N/A  WCI  12
DECORAH *      FAIR      14  10  85 NW14      30.26R WCI  -1
DUBUQUE        FAIR      21  13  71 NW15      30.23R WCI   8
MONTICELLO *   MOCLDY    21  14  73 NW15G22   30.26R WCI   8
OELWEIN *      MOCLDY    18  18 100 NW21      30.29R WCI   1
WATERLOO       FAIR      16  11  80 NW16      30.32R WCI   1
$$

IAZ064-065-067-068-078-210600-
   EAST CENTRAL IOWA

CITY           SKY/WX    TMP DP  RH WIND       PRES   REMARKS
DAVENPORT      FAIR      25  18  74 NW17      30.26S WCI  12
IOWA CITY      FAIR      23  13  65 NW21      30.30R WCI   8
MT. PLEASANT * CLOUDY    25  19  80 NW10G16   30.31R WCI  15
MUSCATINE *    FAIR      25  18  74 NW15      30.30R WCI  12
QUAD CITIES    FAIR      26  19  74 NW15      30.25R WCI  14
$$

IAZ062-063-075>077-085>089-095>099-210600-
   SOUTHEAST IOWA

CITY           SKY/WX    TMP DP  RH WIND       PRES   REMARKS
BURLINGTON     CLOUDY    25  18  74 NW17G24   30.27R WCI  12
FAIRFIELD *    CLOUDY    23  16  74 NW21      30.30R WCI   8
FORT MADISON * MOCLDY    25  21  86 NW13G20   30.28R WCI  13
KEOKUK *       MOCLDY    25  21  86 NW14G21   30.28R WCI  13
OSKALOOSA *    FAIR      20  16  84 NW13      30.33R WCI   8
OTTUMWA        CLOUDY    21  14  74 NW22G28   30.32R WCI   5
WASHINGTON *   MOCLDY    23  19  86 NW18      30.31R WCI   9
$$

ABBREVIATIONS USED IN REMARKS
   TC - TEMPERATURES IN CELSIUS
  WCI - WIND CHILL INDEX
   HX - HEAT INDEX
  VSB - VISIBILITY
$$





USA.gov is the U.S. government's official web portal to all federal, state and local government web resources and services.